DELTA 1 DEB, 39102

Orbit data source: Space-Track

DELTA 1 DEB, 39102 is space debris in LEO originally from a launch on Thu, 14 Jul 1977 UTC launched from the Air Force Eastern Test Range (AFETR). Debris objects in space refer to the collection of defunct objects orbiting the Earth. Examples of debris include non-operational satellites, rocket bodies, and fragments generated from explosions, collisions, or faulty payload assembly.

Loading next visibility...
Identifier
39102, 1977-065GP
Orbit
LEO
Country
Flag of USUS
Related business
Manufacturer
Unknown
Mission
Spacecraft
Bus & Motor
Unknown
Mass
Unknown
Launch date (UTC)
1977-07-14 (49 years ago)
Launch vehicle
Unknown
Launch site
Air Force Eastern Test Range (AFETR)
Object type
Payload
Rocket body
Debris
Shape & HBR
Unknown shape, 0.1 m
Radar Cross Section
Small (<0.1 m²)

Expand to show TLE details & history
Last TLE update: 17 hours ago

TLE from 17 hours ago
0 DELTA 1 DEB
1 39102U 77065GP  26132.61366073  .00000122  00000-0  16629-4 0  9999
2 39102  28.9862 248.0172 0926233  12.7080 349.5238 13.03384732551165
Epoch: 2026-05-12T14:43Z
TLE epoch observation values (Epoch: 2026-05-12T14:43:40.287Z)
Latitude
-0.00001°
Longitude
156.7138°
Altitude
555.308 km
Speed
7.922 km/s
True Right ascension
16h 32m 04s
True Declination
0° 00' 00"
Sunlit
Object was in full shadow at epoch
Visualization orbit readout
Latitude
Unknown
Longitude
Unknown
Altitude
Unknown
Speed
Unknown
Apparent Right ascension
Unknown
Apparent Declination
Unknown
Sunlit
N/A
Visualization observer readout
Local Sidereal Time
16:13:58
Azimuth
Unknown
Elevation
Unknown
Doppler factor
Unknown
Orbital elements
Apogee altitude
1,959.441 km
Perigee altitude
545.864 km
Semi-major axis
7,630.789 km
Eccentricity
0.09262
Inclination
28.9862°
RAAN
248.0172°
Arg. of periapsis
12.708°
True anomaly
347.34798°
Mean anomaly
349.5238°
Eccentric anomaly
348.46235°
Mean motion
3.25603 °/min
Orbital period
110.56 mins
BSTAR
0.000016629
Loading maneuver chart data...
Computing Atmospheric mass density...

Documentation

Showing up to 5 results
|